Terminal Aerodrome Forecast
Issued by NWS Grand Forks, ND

Home | Current Version | Previous Version | Text Only | Print | Product List | Glossary Off
Versions: 1 2 3 4 5 6 7 8 9 10 11 12 13 14 15 16 17 18 19 20 21 22 23

057
FTUS43 KFGF 251844 AAB
TAFFAR
TAF AMD
KFAR 251844Z 2519/2618 07012KT 4SM -SHRA BKN025
     FM252000 13010KT P6SM BKN080
     FM252200 12010KT P6SM VCTS BKN060CB
     FM260200 15008KT P6SM BKN050
     FM260400 18008KT P6SM BKN040=

USA.gov is the U.S. government's official web portal to all federal, state and local government web resources and services.